Temperature
-4 -3 -3 -3 -3 -4 -4 -4 -3 -3 -4 -3 -3 -4 -4 -3 -3 -3 -3 -3 -3 -3 -3 -3 -3 -3 -3 -2 -2 -2 -2 -2 -3 -2 -2 -2 -2 -2 -2 -1 -1 -1 -1 -1
-3 -3 -4 -4 -4 -4 -5 -5 -5 -4 -4 -4 -4 -4 -4 -4 -4 -4 -3 -3 -3 -3 -3 -3 -3 -3 -3 -3 -3 -3 -3 -3 -3 -3 -3 -3 -2 -2 -2 -2 -2 -2 -1 -1
-3 -4 -3 -3 -4 -5 -5 -6 -5 -4 -4 -5 -5 -5 -5 -4 -4 -4 -4 -3 -3 -4 -4 -4 -4 -4 -3 -3 -3 -3 -3 -3 -3 -3 -3 -3 -3 -3 -3 -2 -2 -2 -2 -2
-4 -4 -2 -2 -5 -5 -5 -5 -6 -6 -5 -6 -5 -5 -4 -4 -4 -4 -4 -4 -4 -4 -4 -4 -4 -4 -4 -4 -3 -4 -4 -4 -4 -4 -3 -3 -3 -3 -3 -3 -3 -3 -2 -2
-4 -4 -3 -3 -5 -6 -5 -5 -6 -6 -6 -6 -6 -6 -4 -4 -4 -4 -4 -4 -4 -4 -4 -4 -4 -4 -4 -4 -4 -4 -4 -4 -4 -4 -4 -4 -4 -3 -3 -3 -3 -3 -3 -3
-5 -4 -3 -2 -5 -6 -5 -4 -5 -6 -7 -7 -7 -6 -5 -4 -5 -5 -5 -5 -5 -5 -5 -5 -5 -5 -4 -4 -4 -5 -5 -5 -5 -4 -4 -4 -4 -4 -4 -4 -3 -3 -3 -3
-5 -5 -4 -4 -6 -5 -4 -3 -5 -6 -6 -7 -7 -6 -5 -5 -5 -5 -5 -5 -5 -5 -5 -5 -5 -5 -5 -5 -5 -5 -5 -5 -5 -5 -5 -4 -4 -4 -4 -4 -4 -4 -4 -4
-6 -5 -4 -6 -6 -6 -5 -5 -5 -5 -5 -6 -6 -6 -6 -6 -6 -6 -6 -6 -6 -6 -6 -6 -6 -6 -6 -6 -6 -6 -6 -6 -5 -5 -5 -5 -5 -5 -4 -4 -4 -4 -4 -4
-6 -4 -5 -6 -5 -5 -5 -5 -5 -5 -5 -6 -6 -6 -6 -6 -6 -6 -6 -6 -6 -6 -6 -6 -6 -6 -6 -6 -6 -6 -6 -6 -6 -6 -6 -6 -5 -5 -5 -5 -5 -5 -5 -5
-7 -7 -6 -6 -5 -5 -5 -5 -5 -6 -6 -6 -6 -7 -7 -7 -7 -7 -7 -7 -7 -7 -6 -7 -7 -7 -7 -7 -7 -7 -7 -6 -6 -6 -6 -6 -6 -6 -6 -6 -6 -6 -6 -6
-8 -7 -7 -6 -5 -5 -6 -6 -6 -6 -6 -7 -7 -7 -7 -7 -7 -7 -7 -7 -7 -7 -7 -7 -7 -7 -7 -7 -7 -7 -7 -7 -7 -7 -7 -7 -7 -7 -7 -7 -7 -7 -6 -6
-6 -6 -7 -6 -5 -6 -6 -6 -6 -7 -7 -7 -7 -7 -7 -7 -7 -7 -7 -7 -8 -8 -8 -7 -7 -7 -7 -7 -7 -7 -7 -7 -8 -8 -8 -8 -8 -7 -7 -7 -7 -7 -7 -7
-6 -6 -6 -6 -6 -6 -7 -7 -7 -7 -7 -7 -7 -8 -8 -8 -8 -8 -8 -8 -8 -8 -8 -8 -8 -8 -8 -8 -8 -8 -8 -8 -8 -8 -8 -8 -8 -8 -8 -7 -7 -7 -7 -7
-7 -7 -7 -7 -7 -7 -7 -7 -7 -8 -8 -8 -8 -8 -8 -8 -8 -8 -8 -8 -8 -8 -8 -8 -8 -8 -8 -8 -8 -8 -9 -9 -9 -9 -9 -9 -9 -9 -8 -8 -8 -8 -8 -8
-7 -7 -8 -8 -8 -8 -8 -8 -8 -8 -8 -8 -8 -8 -9 -9 -9 -9 -9 -9 -9 -9 -9 -9 -9 -9 -9 -9 -9 -9 -9 -9 -9 -9 -9 -9 -9 -9 -9 -9 -9 -9 -8 -8
-8 -8 -8 -8 -8 -8 -8 -8 -9 -8 -9 -9 -9 -9 -9 -9 -9 -9 -9 -9 -9 -9 -9 -9 -9 -9 -9 -9 -9 -9 -9 -9 -9 -9 -9 -9 -9 -9 -9 -9 -9 -9 -9 -9
-9 -9 -9 -9 -9 -9 -9 -9 -9 -9 -9 -9 -9 -9 -9 -9 -9 -10 -10 -10 -10 -10 -10 -10 -10 -10 -10 -10 -10 -10 -10 -10 -10 -10 -10 -10 -10 -10 -10 -10 -10 -10 -10 -10
-8 -9 -9 -9 -9 -9 -9 -9 -9 -9 -10 -10 -10 -10 -10 -10 -10 -10 -10 -10 -10 -10 -10 -10 -10 -10 -10 -10 -10 -10 -10 -10 -10 -10 -10 -10 -10 -10 -10 -11 -11 -11 -11 -10
-9 -9 -9 -9 -9 -9 -9 -9 -9 -10 -10 -10 -10 -10 -10 -10 -10 -10 -10 -10 -10 -10 -10 -10 -10 -10 -10 -10 -11 -11 -11 -11 -11 -11 -11 -11 -11 -11 -11 -11 -11 -11 -11 -11
-9 -9 -9 -9 -9 -10 -10 -10 -10 -10 -10 -10 -10 -10 -10 -10 -11 -11 -11 -11 -11 -11 -11 -11 -11 -11 -11 -11 -11 -11 -11 -11 -11 -11 -11 -11 -11 -11 -11 -11 -11 -11 -11 -11
-9 -10 -10 -10 -10 -10 -10 -10 -10 -10 -10 -10 -10 -11 -11 -11 -11 -11 -11 -11 -11 -11 -11 -11 -11 -11 -11 -11 -11 -11 -11 -11 -11 -11 -11 -11 -11 -11 -11 -11 -11 -11 -11 -11
-10 -10 -10 -10 -10 -10 -10 -10 -11 -11 -11 -11 -11 -11 -11 -11 -11 -12 -12 -12 -12 -12 -12 -12 -12 -12 -12 -12 -12 -12 -12 -12 -12 -12 -12 -12 -12 -12 -12 -12 -12 -12 -12 -12
-10 -10 -11 -11 -11 -11 -11 -11 -11 -11 -11 -11 -11 -11 -12 -12 -12 -12 -12 -12 -12 -12 -12 -12 -12 -12 -12 -12 -12 -12 -12 -12 -12 -12 -12 -12 -12 -12 -12 -12 -12 -12 -12 -12
-11 -11 -11 -11 -11 -11 -11 -11 -11 -11 -11 -11 -12 -12 -12 -12 -12 -12 -12 -12 -12 -12 -12 -12 -12 -12 -12 -12 -12 -12 -12 -12 -12 -12 -12 -12 -12 -12 -12 -12 -12 -12 -12 -12
-11 -11 -11 -11 -11 -12 -12 -12 -12 -12 -12 -12 -12 -12 -12 -12 -12 -12 -13 -13 -13 -13 -13 -13 -13 -13 -13 -13 -13 -13 -13 -13 -13 -13 -13 -12 -12 -12 -12 -12 -12 -12 -12 -12
-11 -11 -12 -12 -12 -12 -12 -12 -12 -12 -12 -12 -12 -12 -12 -13 -13 -13 -13 -13 -13 -13 -13 -13 -13 -13 -13 -13 -13 -13 -13 -13 -13 -13 -13 -13 -13 -13 -13 -13 -12 -12 -12 -12
-12 -12 -12 -12 -12 -12 -12 -12 -12 -12 -12 -13 -12 -12 -13 -13 -13 -13 -13 -13 -13 -13 -13 -13 -13 -13 -13 -13 -13 -13 -13 -13 -13 -13 -13 -13 -13 -13 -13 -13 -13 -13 -13 -13
Wind_Speed
8 7 5 7 8 6 8 8 9 10 11 14 10 10 9 8 7 6 6 6 6 5 5 4 4 4 4 4 3 3 2 2 3 3 2 2 2 1 2 2 2 2 2 2
6 5 6 9 10 8 9 8 10 11 14 10 8 6 7 7 6 7 7 7 6 5 4 4 5 5 5 5 4 3 2 3 3 3 3 3 3 2 2 2 2 2 2 2
5 4 5 8 8 8 6 6 6 10 10 7 8 8 8 8 6 7 7 6 6 5 4 5 5 5 5 5 4 3 2 3 3 3 4 4 3 2 2 2 2 2 3 3
3 4 6 6 1 4 5 6 7 8 8 7 8 9 8 6 5 7 7 6 6 5 5 5 4 4 4 4 4 3 3 3 3 3 4 3 2 2 2 2 2 3 3 3
1 4 9 6 2 2 3 6 4 7 9 7 7 7 6 4 4 5 6 6 5 4 4 4 5 4 4 4 4 4 4 4 4 3 3 3 3 3 2 2 2 3 3 3
2 3 6 5 2 1 1 5 3 3 7 5 4 4 6 6 6 6 6 5 5 4 4 4 5 4 3 4 4 4 5 5 4 3 3 3 3 3 2 2 3 3 3 3
5 6 8 4 1 1 1 5 4 3 5 3 3 5 6 7 7 5 5 5 5 4 4 5 5 4 4 4 5 5 5 5 4 4 3 3 3 2 2 2 2 2 3 3
4 5 8 1 3 4 5 3 4 4 4 4 5 6 6 6 6 6 5 5 5 4 5 5 5 4 5 6 6 5 4 4 4 4 3 3 2 2 1 2 2 2 2 3
8 7 3 4 5 3 2 4 4 4 4 4 5 6 6 5 5 5 5 5 5 4 5 6 5 4 5 7 6 5 4 4 4 4 3 3 2 2 2 1 1 2 2 3
5 7 5 5 5 4 3 5 6 5 5 3 5 5 6 5 5 5 5 5 4 5 5 6 6 5 5 6 5 4 4 4 3 3 3 3 3 2 2 1 1 2 2 3
6 6 5 5 5 6 6 5 5 5 4 4 4 5 5 5 6 5 5 4 4 4 5 6 6 6 6 5 5 4 4 4 3 3 3 2 2 2 2 2 3 3 3 3
7 5 4 6 5 4 5 6 5 5 6 5 4 5 5 5 5 5 4 4 4 5 5 6 6 6 6 5 4 4 4 4 3 2 2 2 2 3 4 4 5 5 4 4
6 4 5 6 5 3 4 5 5 5 5 6 5 4 4 5 4 4 4 4 5 5 5 6 6 6 6 5 4 3 3 4 3 2 2 2 2 2 3 4 5 5 5 5
4 3 4 4 5 5 4 4 4 4 4 4 4 4 3 4 4 4 5 5 5 5 5 5 6 6 6 4 4 4 4 4 3 2 2 2 2 2 2 3 4 4 5 6
4 4 5 5 4 4 3 3 3 4 4 4 3 3 3 4 4 5 5 5 5 5 5 5 6 7 5 4 4 3 3 3 2 2 2 2 2 2 2 2 3 3 4 4
5 4 4 4 5 4 4 3 3 5 5 5 5 4 4 4 4 4 4 4 4 5 6 6 6 6 5 4 4 3 3 4 3 2 2 2 2 2 2 2 2 2 3 3
3 4 4 5 5 5 4 4 4 4 4 4 5 5 4 4 4 4 5 4 4 5 5 6 6 6 4 3 3 3 2 3 4 3 2 2 2 2 2 2 2 2 3 3
4 5 5 5 5 5 5 4 4 4 3 4 4 4 3 3 4 5 5 5 5 5 5 6 6 5 4 3 2 2 2 2 2 2 2 2 2 2 2 2 2 3 3 4
3 3 4 4 4 3 3 3 4 4 3 3 3 3 4 4 4 5 5 5 5 6 6 6 8 5 4 4 3 2 2 2 2 2 2 3 3 2 2 2 2 2 3 3
3 3 3 3 3 2 3 3 3 3 3 3 3 3 4 5 4 4 4 4 4 5 6 6 6 4 4 4 4 2 2 2 2 3 3 2 2 3 3 3 3 3 3 3
4 4 3 3 3 3 3 3 3 3 4 3 3 4 4 5 4 4 4 5 5 6 6 8 5 4 4 4 4 2 2 2 3 3 3 3 3 3 3 3 3 3 3 3
3 3 3 3 3 4 3 3 2 3 4 4 4 4 4 5 5 4 4 4 5 7 6 4 4 6 6 5 2 2 2 3 3 3 3 3 3 3 4 4 4 4 4 3
3 3 3 3 3 4 4 3 3 3 3 4 4 4 4 5 4 4 5 4 4 7 5 4 7 9 8 4 2 2 2 3 3 3 3 3 3 4 4 4 4 4 4 4
3 3 3 3 2 3 4 4 4 3 3 4 4 4 4 4 4 4 4 7 8 8 5 6 9 9 8 3 3 3 3 3 3 3 3 3 3 3 3 4 4 4 4 4
3 3 2 3 3 3 4 4 4 4 4 4 4 4 4 3 4 5 5 5 7 7 5 7 8 8 5 3 3 3 3 3 4 3 3 3 4 4 4 4 4 4 4 4
2 3 3 3 3 3 3 3 3 4 4 4 5 4 4 3 4 4 4 4 5 7 5 5 5 6 4 3 3 4 4 5 5 4 4 4 4 4 4 4 5 4 5 5
3 3 3 3 3 3 3 3 4 4 4 4 5 5 4 4 4 4 4 4 4 4 4 4 4 4 4 4 4 4 4 4 4 4 4 4 4 4 5 5 5 5 5 6
Wind_Direction
260 269 255 251 253 226 219 225 233 256 265 277 292 293 292 293 297 300 305 305 301 301 306 314 320 322 320 317 320 320 321 312 302 299 297 290 285 269 255 251 255 244 235 234
280 264 254 265 261 240 236 242 247 269 278 279 298 303 302 302 299 301 301 299 302 307 311 311 312 313 312 311 312 313 302 294 300 308 302 289 274 250 238 247 257 254 248 245
282 310 319 280 248 220 230 229 217 243 265 310 317 313 305 299 298 297 298 302 303 301 296 297 299 301 301 304 313 313 299 301 304 303 296 287 276 256 247 247 252 262 259 249
293 354 264 255 201 201 232 253 230 258 285 296 292 302 296 288 292 298 301 304 306 310 312 310 307 308 309 313 317 315 308 306 307 303 293 289 272 249 243 246 242 245 255 250
239 274 279 292 255 182 222 279 245 253 280 302 316 319 312 313 309 299 303 309 308 311 316 322 322 316 318 323 324 325 318 304 298 296 295 287 266 251 237 236 245 247 254 246
195 239 257 270 256 220 152 288 294 258 280 301 338 323 305 324 327 324 327 330 331 335 340 340 333 333 332 325 327 318 311 306 301 296 286 279 259 251 239 237 246 257 266 257
223 240 263 267 253 123 175 274 316 286 278 269 258 264 295 318 325 327 332 336 341 344 343 334 335 342 337 328 315 307 309 311 316 313 298 286 273 252 236 244 252 256 269 272
200 227 260 214 127 186 238 293 294 287 281 270 278 297 311 321 325 331 336 340 343 341 335 335 341 345 335 324 316 318 318 320 321 319 313 315 312 294 256 230 245 262 271 286
206 225 267 189 208 244 272 282 283 280 288 282 287 294 306 312 315 321 326 331 335 335 333 336 339 339 324 318 323 326 325 323 322 323 323 328 324 314 303 266 242 261 263 274
255 264 267 249 264 285 277 272 284 287 289 278 280 289 299 305 312 317 321 324 329 333 332 330 330 326 314 317 324 326 323 321 323 326 328 335 327 322 312 293 270 270 267 271
259 280 303 272 255 270 287 293 298 306 298 285 281 290 293 300 303 307 314 318 320 319 317 316 322 322 321 323 323 322 320 320 323 323 321 327 324 319 299 282 263 260 260 263
250 248 245 274 283 278 280 286 291 298 303 300 284 284 293 296 298 303 310 316 318 318 316 316 320 320 323 325 324 321 320 321 319 317 314 316 316 321 321 312 318 307 297 288
253 272 259 276 290 278 272 283 290 289 285 291 293 287 288 294 300 308 312 313 309 309 309 312 317 319 321 321 320 314 307 310 310 313 311 311 312 313 319 331 340 340 333 328
263 278 282 282 288 296 293 296 302 304 302 296 298 304 304 303 309 312 308 303 303 308 311 312 317 318 318 316 311 308 302 301 305 301 301 301 304 309 313 321 329 331 337 338
278 267 267 284 297 307 314 321 325 321 320 321 318 312 307 305 303 305 308 312 318 320 317 318 319 317 320 317 310 309 311 310 305 307 302 299 301 311 317 318 315 319 332 337
297 299 292 295 300 308 315 316 308 308 313 316 317 311 303 301 304 310 315 321 321 316 314 315 312 311 314 312 310 312 311 316 318 313 311 309 309 311 313 314 313 319 323 322
297 297 294 296 297 298 294 288 284 291 303 308 307 310 316 322 322 322 320 318 308 299 301 305 306 309 309 306 303 307 309 311 315 316 313 307 306 301 299 303 304 307 312 320
251 260 266 270 275 282 290 296 295 297 297 300 310 322 326 322 313 312 316 323 323 319 315 312 312 311 305 308 305 303 304 304 308 306 305 305 301 295 291 289 291 293 304 313
283 280 284 287 283 278 283 290 295 298 306 312 311 308 309 310 313 316 323 329 328 323 321 319 326 332 315 312 319 302 303 305 306 304 299 299 306 309 302 295 292 290 297 303
308 310 310 312 311 304 301 308 312 314 318 320 319 324 326 324 324 323 323 316 305 299 308 319 327 325 316 307 315 300 292 293 296 299 297 290 287 289 288 287 286 286 289 288
317 322 324 323 323 323 315 314 315 315 319 323 316 310 311 316 322 324 321 315 314 316 320 324 329 319 316 317 312 298 287 285 285 284 285 285 286 285 285 284 286 289 289 287
320 321 321 323 324 323 322 318 310 310 317 319 318 318 320 320 320 318 302 294 307 318 327 323 321 316 324 327 322 308 291 283 282 283 281 278 278 281 283 284 283 285 286 284
316 314 314 317 313 313 322 323 316 311 309 308 309 310 306 303 304 307 308 309 312 315 324 317 317 320 327 338 328 311 301 294 286 279 276 274 272 273 276 279 281 282 284 284
318 317 315 319 327 330 323 318 316 311 303 301 301 298 299 305 308 297 293 308 318 318 319 317 322 325 332 343 328 314 303 295 290 285 282 278 275 272 272 274 278 280 278 278
320 321 323 328 323 311 305 312 320 319 317 314 309 304 299 293 292 301 306 310 315 322 323 320 324 328 334 326 315 306 300 292 286 283 277 279 278 277 274 271 270 273 277 276
321 316 308 301 298 302 308 311 311 311 315 315 316 314 313 311 304 304 310 312 312 319 324 320 321 322 324 319 313 306 298 298 301 297 284 279 277 274 273 274 273 272 271 270
327 327 326 325 323 316 310 305 303 303 303 301 305 310 314 317 317 317 317 318 319 318 317 316 317 317 315 312 310 306 300 294 290 288 286 279 276 274 273 272 273 274 275 273
Height
1528 1525 1526 1525 1523 1525 1525 1521 1517 1508 1506 1494 1493 1491 1488 1485 1483 1480 1478 1476 1474 1473 1472 1471 1470 1470 1468 1467 1466 1465 1464 1464 1464 1464 1464 1464 1464 1464 1465 1467 1468 1468 1469 1470
1526 1522 1523 1520 1516 1518 1518 1517 1514 1508 1502 1491 1491 1489 1486 1483 1481 1478 1476 1474 1473 1472 1471 1470 1469 1468 1466 1465 1464 1463 1462 1461 1461 1461 1461 1461 1461 1461 1462 1463 1464 1465 1465 1466
1525 1523 1519 1515 1510 1511 1511 1509 1508 1505 1496 1491 1490 1487 1484 1481 1479 1477 1475 1473 1472 1471 1469 1468 1467 1466 1464 1463 1461 1460 1459 1458 1458 1458 1458 1458 1457 1457 1458 1459 1460 1461 1462 1463
1527 1525 1518 1504 1504 1503 1504 1502 1502 1498 1493 1491 1489 1485 1482 1481 1479 1476 1474 1472 1470 1469 1468 1467 1465 1464 1462 1461 1459 1457 1456 1456 1455 1455 1454 1454 1454 1453 1454 1456 1457 1458 1458 1459
1529 1528 1514 1503 1502 1503 1503 1499 1495 1494 1490 1489 1486 1483 1480 1479 1477 1476 1474 1472 1470 1468 1467 1465 1463 1462 1460 1458 1456 1455 1453 1453 1452 1452 1451 1451 1450 1451 1451 1452 1453 1454 1455 1456
1529 1525 1514 1500 1501 1499 1501 1497 1491 1490 1489 1488 1486 1485 1480 1477 1475 1474 1472 1471 1469 1467 1465 1463 1462 1460 1458 1456 1454 1452 1451 1450 1450 1449 1448 1447 1447 1448 1448 1449 1450 1450 1451 1452
1526 1523 1509 1500 1499 1499 1502 1494 1490 1488 1487 1486 1485 1484 1480 1476 1474 1473 1471 1469 1468 1466 1464 1462 1460 1458 1456 1454 1452 1451 1449 1448 1447 1446 1445 1444 1444 1445 1445 1446 1446 1447 1447 1448
1523 1521 1508 1498 1498 1499 1495 1490 1488 1486 1485 1484 1482 1480 1478 1475 1473 1471 1469 1468 1466 1464 1462 1460 1458 1456 1454 1452 1451 1449 1447 1445 1444 1443 1443 1442 1441 1441 1442 1442 1443 1443 1444 1444
1510 1503 1496 1494 1492 1492 1491 1489 1487 1485 1483 1482 1480 1478 1476 1474 1472 1470 1469 1467 1465 1463 1461 1459 1457 1455 1452 1451 1449 1447 1445 1443 1442 1441 1440 1439 1439 1439 1439 1439 1439 1440 1440 1440
1504 1495 1493 1491 1490 1489 1488 1486 1485 1483 1481 1479 1477 1476 1474 1472 1471 1469 1467 1465 1463 1461 1459 1457 1456 1453 1451 1449 1447 1445 1443 1441 1440 1438 1437 1437 1436 1436 1436 1436 1436 1436 1436 1437
1499 1493 1490 1487 1487 1486 1485 1483 1482 1480 1479 1477 1475 1473 1472 1470 1469 1467 1465 1464 1462 1460 1458 1456 1454 1452 1450 1447 1445 1443 1441 1439 1438 1436 1435 1434 1434 1434 1433 1433 1433 1433 1434 1434
1493 1489 1489 1485 1484 1483 1482 1480 1479 1477 1475 1474 1473 1471 1470 1468 1467 1465 1463 1462 1460 1458 1456 1454 1452 1450 1448 1446 1443 1441 1439 1437 1436 1435 1434 1433 1432 1432 1431 1431 1431 1431 1432 1432
1488 1486 1485 1483 1481 1480 1479 1477 1476 1474 1473 1471 1470 1469 1467 1465 1464 1463 1461 1460 1458 1456 1454 1452 1450 1448 1446 1444 1442 1439 1437 1436 1434 1433 1432 1431 1430 1430 1429 1429 1429 1429 1429 1430
1484 1483 1481 1480 1478 1477 1476 1474 1473 1471 1470 1468 1467 1465 1464 1463 1462 1460 1459 1457 1456 1454 1452 1450 1448 1446 1444 1442 1440 1438 1436 1434 1433 1432 1431 1430 1429 1429 1428 1427 1427 1427 1428 1428
1481 1481 1479 1477 1476 1474 1473 1471 1469 1468 1466 1465 1464 1463 1461 1460 1459 1458 1456 1455 1453 1452 1450 1448 1446 1444 1442 1440 1438 1436 1434 1433 1432 1431 1430 1429 1428 1428 1427 1426 1426 1425 1425 1426
1478 1477 1476 1474 1473 1471 1470 1468 1467 1465 1464 1462 1461 1460 1459 1458 1457 1455 1454 1453 1451 1449 1447 1445 1443 1441 1440 1438 1436 1434 1433 1432 1431 1430 1429 1428 1427 1427 1426 1425 1425 1424 1424 1424
1475 1473 1472 1471 1469 1468 1467 1466 1464 1463 1462 1460 1459 1458 1457 1456 1455 1453 1452 1451 1449 1447 1446 1444 1441 1440 1438 1436 1434 1433 1432 1431 1430 1429 1428 1427 1426 1426 1425 1424 1423 1423 1423 1422
1473 1472 1471 1469 1467 1466 1464 1463 1462 1461 1460 1459 1458 1456 1455 1454 1453 1451 1450 1448 1446 1445 1443 1441 1439 1437 1436 1434 1433 1431 1430 1429 1428 1428 1427 1426 1425 1425 1424 1423 1422 1422 1421 1421
1470 1469 1468 1467 1465 1464 1463 1461 1460 1459 1458 1457 1456 1455 1454 1452 1451 1450 1448 1446 1444 1442 1440 1439 1437 1435 1434 1432 1431 1430 1429 1428 1427 1426 1425 1425 1424 1423 1422 1422 1421 1420 1420 1419
1468 1467 1466 1464 1463 1462 1461 1460 1459 1458 1457 1455 1454 1453 1451 1450 1449 1447 1446 1444 1442 1441 1439 1437 1435 1433 1431 1430 1429 1428 1427 1426 1425 1424 1423 1423 1422 1421 1421 1420 1419 1418 1418 1417
1466 1465 1464 1463 1461 1460 1459 1458 1457 1456 1455 1454 1452 1451 1450 1448 1447 1445 1443 1441 1440 1439 1437 1435 1433 1431 1430 1428 1427 1426 1425 1424 1423 1422 1421 1420 1420 1419 1418 1418 1417 1416 1415 1414
1465 1463 1462 1461 1460 1458 1457 1456 1455 1454 1453 1452 1451 1449 1448 1446 1445 1443 1442 1440 1438 1436 1434 1433 1431 1429 1428 1426 1425 1423 1422 1421 1420 1419 1419 1418 1417 1416 1415 1415 1414 1413 1412 1411
1464 1462 1461 1460 1458 1457 1456 1455 1454 1452 1451 1450 1449 1447 1446 1444 1443 1441 1439 1438 1436 1434 1432 1431 1429 1427 1425 1424 1422 1421 1419 1418 1417 1416 1415 1415 1414 1413 1412 1411 1411 1410 1409 1408
1463 1461 1460 1459 1457 1456 1454 1453 1452 1451 1450 1448 1447 1445 1444 1442 1440 1439 1437 1435 1434 1432 1430 1428 1427 1425 1423 1421 1420 1418 1417 1415 1414 1413 1412 1411 1411 1410 1409 1408 1407 1406 1405 1404
1461 1460 1458 1457 1455 1454 1453 1451 1450 1449 1447 1446 1445 1443 1442 1440 1438 1436 1435 1433 1431 1429 1428 1426 1424 1422 1421 1419 1417 1416 1414 1413 1411 1410 1409 1408 1407 1406 1405 1404 1403 1402 1401 1400
1460 1458 1457 1456 1454 1453 1451 1449 1448 1446 1445 1443 1442 1441 1439 1438 1436 1434 1432 1430 1429 1427 1425 1423 1422 1420 1418 1416 1415 1413 1411 1410 1408 1407 1406 1405 1404 1403 1402 1401 1399 1398 1397 1397
1459 1457 1455 1454 1452 1451 1449 1448 1446 1445 1443 1441 1440 1438 1437 1435 1433 1432 1430 1428 1426 1424 1423 1421 1419 1417 1415 1414 1412 1410 1409 1407 1406 1404 1403 1401 1400 1399 1398 1397 1396 1394 1393 1392